Mountain Home, AR

6:52 PM CST on December 05, 2019 (GMT -0600)
Baxter County Regional

Weather History for KBPK - October, 2019

Change the Weather History Date:

Saturday, October 12, 2019

  Actual Average (KFLP) Record (KFLP)
Temperature  
Mean Temperature 46 °F -  
Max Temperature 61 °F 69 °F 86 °F (2015)
Min Temperature 30 °F 47 °F 30 °F (2019)
Degree Days  
Heating Degree Days 20    
Moisture  
Dew Point 34 °F    
Average Humidity 69    
Maximum Humidity 100    
Minimum Humidity 32    
Precipitation  
Precipitation 0.00 in - - ()
Sea Level Pressure  
Sea Level Pressure 30.17 in    
Wind  
Wind Speed 1 mph (SW)    
Max Wind Speed 6 mph    
Max Gust Speed -    
Visibility 10 miles    
Events      
Averages and records for this station are not official NWS values.
T = Trace of Precipitation, MM = Missing Value Source: NWS Daily Summary

Daily Weather History Graph

Daily Weather History Graph

Search for Another Location

Airport or City:

Astronomy

Oct. 12, 2019 Rise Set
Actual Time 7:14 AM CDT 6:38 PM CDT
Civil Twilight 6:48 AM CDT 7:03 PM CDT
Nautical Twilight 6:18 AM CDT 7:33 PM CDT
Astronomical Twilight 5:48 AM CDT 8:03 PM CDT
Moon 6:30 PM CDT (10/12) 5:56 AM CDT (10/12)
Length of Visible Light 12h 15m
Length of Day
11h 23m
Waxing Gibbous, 99% of the Moon is Illuminated
Oct 12
Waxing Gibbous
Oct 13
Full
Oct 21
Last Quarter
Oct 27
New
Nov 4
First Quarter

Hourly Weather History & Observations

Time (CDT) Temp. Windchill Dew Point Humidity Pressure Visibility Wind Dir Wind Speed Gust Speed Precip Events Conditions
12:53 AM 36.0 °F - 34.0 °F 93% 30.26 in 10.0 mi Calm Calm - N/A   Clear
1:53 AM 35.1 °F - 33.1 °F 92% 30.25 in 10.0 mi Calm Calm - N/A   Clear
2:53 AM 34.0 °F - 33.1 °F 96% 30.24 in 10.0 mi Calm Calm - N/A   Clear
4:53 AM 33.1 °F - 32.0 °F 96% 30.25 in 10.0 mi Calm Calm - N/A   Clear
5:53 AM 33.1 °F 30.0 °F 32.0 °F 96% 30.25 in 10.0 mi WSW 3.5 mph - N/A   Clear
6:53 AM 30.9 °F - 30.9 °F 100% 30.25 in 10.0 mi Calm Calm - N/A   Clear
7:53 AM 33.1 °F - 33.1 °F 100% 30.25 in 10.0 mi Calm Calm - N/A   Clear
8:53 AM 39.0 °F 35.7 °F 35.1 °F 86% 30.26 in 10.0 mi SW 4.6 mph - N/A   Clear
9:53 AM 44.1 °F - 32.0 °F 63% 30.27 in 10.0 mi Calm Calm - N/A   Clear
10:53 AM 48.9 °F - 30.0 °F 48% 30.25 in 10.0 mi Variable 3.5 mph - N/A   Clear
11:53 AM 52.0 °F - 28.9 °F 41% 30.22 in 10.0 mi Variable 3.5 mph - N/A   Clear
12:53 PM 55.0 °F - 28.9 °F 37% 30.19 in 10.0 mi Calm Calm - N/A   Clear
1:53 PM 57.9 °F - 30.9 °F 36% 30.15 in 10.0 mi Variable 5.8 mph - N/A   Clear
2:53 PM 59.0 °F - 30.0 °F 33% 30.12 in 10.0 mi Calm Calm - N/A   Clear
3:53 PM 60.1 °F - 30.0 °F 32% 30.09 in 10.0 mi Calm Calm - N/A   Clear
4:53 PM 61.0 °F - 36.0 °F 39% 30.08 in 10.0 mi Variable 3.5 mph - N/A   Clear
5:53 PM 57.9 °F - 34.0 °F 41% 30.06 in 10.0 mi SSW 4.6 mph - N/A   Clear
6:53 PM 48.9 °F - 39.9 °F 71% 30.07 in 10.0 mi Calm Calm - N/A   Clear
8:53 PM 48.9 °F - 39.0 °F 69% 30.06 in 10.0 mi SSW 5.8 mph - N/A   Clear
9:53 PM 46.9 °F - 39.0 °F 74% 30.05 in 10.0 mi SSW 4.6 mph - N/A   Clear
10:53 PM 45.0 °F 43.5 °F 39.0 °F 80% 30.05 in 10.0 mi SSW 3.5 mph - N/A   Clear
11:53 PM 42.1 °F - 39.9 °F 92% 30.05 in 10.0 mi Calm Calm - N/A   Clear